GW5115 Weather Reports


time (UTC)temp
C
wind
direction
speed
KPH
gust
KPH
rain 1hr
cm
rain 24hr
cm
rain mn
cm
humidity
%
barometer
mb
20260510214230 22 327 3.2 6.4 0.00 0.00 0.00 65 1017.3
20260510213726 22 26 8.0 11.3 0.00 0.00 0.00 63 1016.9
20260510213223 22 69 3.2 4.8 0.00 0.00 0.00 63 1017.1
20260510212719 21 36 3.2 6.4 0.00 0.00 0.00 67 1016.9
20260510212217 22 73 6.4 11.3 0.00 0.00 0.00 66 1017.0
20260510211714 22 45 3.2 12.9 0.00 0.00 0.00 65 1016.8
20260510211208 21 58 8.0 11.3 0.00 0.00 0.00 66 1016.8
20260510210705 22 36 6.4 9.7 0.00 0.00 0.00 63 1016.7
20260510210200 22 94 6.4 9.7 0.00 0.00 0.00 64 1016.6
20260510205700 21 46 6.4 14.5 0.00 0.00 0.00 67 1016.9
20260510205155 21 35 8.0 16.1 0.00 0.00 0.00 68 1016.7
20260510204652 21 22 4.8 11.3 0.00 0.00 0.00 68 1016.7
20260510204149 21 60 9.7 11.3 0.00 0.00 0.00 66 1016.7
20260510203645 21 3 9.7 14.5 0.00 0.00 0.00 66 1016.6
20260510203142 21 41 3.2 20.9 0.00 0.00 0.00 66 1016.7
20260510202636 22 336 6.4 11.3 0.00 0.00 0.00 68 1016.9
20260510202131 21 44 11.3 17.7 0.00 0.00 0.00 66 1016.8
20260510201629 23 26 9.7 11.3 0.00 0.00 0.00 64 1016.6
20260510201126 23 2 11.3 16.1 0.00 0.00 0.00 64 1016.6
20260510200622 22 42 6.4 12.9 0.00 0.00 0.00 66 1016.8
20260510200120 22 22 9.7 16.1 0.00 0.00 0.00 63 1016.7
20260510195618 23 21 6.4 14.5 0.00 0.00 0.00 66 1017.1
20260510195113 21 359 8.0 14.5 0.00 0.00 0.00 64 1016.9
20260510194613 21 8 8.0 11.3 0.00 0.00 0.00 64 1017.2
20260510194110 22 344 9.7 17.7 0.00 0.00 0.00 64 1016.9
20260510193610 22 62 4.8 16.1 0.00 0.00 0.00 65 1016.8
20260510193106 22 22 12.9 17.7 0.00 0.00 0.00 64 1016.9
20260510192601 23 27 4.8 16.1 0.00 0.00 0.00 62 1016.9
20260510192057 22 37 8.0 12.9 0.00 0.00 0.00 61 1016.7
20260510191554 22 27 6.4 16.1 0.00 0.00 0.00 62 1016.8
20260510191051 22 314 14.5 17.7 0.00 0.00 0.00 61 1017.1
20260510190548 22 288 3.2 12.9 0.00 0.00 0.00 64 1017.1
20260510190045 22 354 6.4 12.9 0.00 0.00 0.00 63 1017.0
20260510185536 22 34 9.7 16.1 0.00 0.00 0.00 64 1016.9
20260510185034 21 340 11.3 16.1 0.00 0.00 0.00 65 1017.2
20260510184531 22 27 11.3 14.5 0.00 0.00 0.00 62 1016.9
20260510184026 22 338 4.8 9.7 0.00 0.00 0.00 64 1017.0
20260510183521 22 45 14.5 27.4 0.00 0.00 0.00 64 1016.8
20260510183017 22 11 16.1 20.9 0.00 0.00 0.00 62 1016.9
20260510182514 22 332 9.7 20.9 0.00 0.00 0.00 65 1016.9
20260510182008 22 341 9.7 12.9 0.00 0.00 0.00 67 1016.9
20260510181507 22 341 9.7 16.1 0.00 0.00 0.00 66 1016.9
20260510181002 22 47 1.6 11.3 0.00 0.00 0.00 68 1016.8
20260510180500 22 311 6.4 9.7 0.00 0.00 0.00 66 1016.7
20260510175957 22 326 1.6 6.4 0.00 0.00 0.00 65 1016.6
20260510175452 21 16 3.2 17.7 0.00 0.00 0.00 66 1016.7
20260510174948 22 8 9.7 17.7 0.00 0.00 0.00 68 1016.7
20260510174446 22 20 12.9 14.5 0.00 0.00 0.00 65 1016.7
20260510173943 21 15 3.2 6.4 0.00 0.00 0.00 69 1016.8
20260510173439 21 288 4.8 14.5 0.00 0.00 0.00 70 1016.8
20260510172935 21 337 8.0 14.5 0.00 0.00 0.00 69 1016.8
20260510172431 20 33 9.7 12.9 0.00 0.00 0.00 72 1016.9
20260510171928 20 338 8.0 17.7 0.00 0.00 0.00 73 1016.7
20260510171425 20 35 9.7 12.9 0.00 0.00 0.00 72 1016.8
20260510170921 20 14 6.4 16.1 0.00 0.00 0.00 72 1016.8
20260510170418 20 12 11.3 14.5 0.00 0.00 0.00 72 1016.9
20260510165913 20 8 6.4 14.5 0.00 0.00 0.00 72 1017.0
20260510165410 21 42 3.2 6.4 0.00 0.00 0.00 70 1016.9
20260510164908 21 13 4.8 9.7 0.00 0.00 0.00 70 1016.8
20260510164405 21 13 6.4 11.3 0.00 0.00 0.00 69 1016.8
20260510163904 21 7 9.7 14.5 0.00 0.00 0.00 65 1016.9
20260510163401 21 340 8.0 16.1 0.00 0.00 0.00 68 1016.8
20260510162855 21 322 9.7 11.3 0.00 0.00 0.00 67 1016.7
20260510162354 21 335 9.7 14.5 0.00 0.00 0.00 69 1016.7
20260510161848 21 305 3.2 3.2 0.00 0.00 0.00 68 1016.8
20260510161344 21 339 0.0 0.0 0.00 0.00 0.00 66 1016.8
20260510160841 20 338 0.0 0.0 0.00 0.00 0.00 74 1016.8
20260510160339 20 339 0.0 0.0 0.00 0.00 0.00 72 1016.6
20260510155832 20 338 0.0 0.0 0.00 0.00 0.00 71 1016.8
20260510155330 20 315 3.2 4.8 0.00 0.00 0.00 68 1016.8
20260510154826 20 36 6.4 11.3 0.00 0.00 0.00 66 1017.0
20260510154321 20 346 6.4 6.4 0.00 0.00 0.00 63 1016.9
20260510153816 21 284 1.6 3.2 0.00 0.00 0.00 62 1016.3
20260510153312 21 293 0.0 3.2 0.00 0.00 0.00 61 1015.9
20260510152809 21 292 3.2 4.8 0.00 0.00 0.00 62 1016.0
20260510152307 20 27 1.6 1.6 0.00 0.00 0.00 63 1016.1
20260510151803 20 349 3.2 6.4 0.00 0.00 0.00 63 1016.4
20260510151301 20 13 3.2 9.7 0.00 0.00 0.00 63 1016.7
20260510150756 21 17 6.4 12.9 0.00 0.00 0.00 62 1016.6
20260510150252 21 272 4.8 4.8 0.00 0.00 0.00 61 1016.6
20260510145748 20 275 4.8 6.4 0.00 0.00 0.00 62 1016.4
20260510145245 20 297 8.0 16.1 0.00 0.00 0.00 62 1016.7
20260510144740 20 7 6.4 12.9 0.00 0.00 0.00 63 1016.2
20260510144238 20 281 3.2 16.1 0.00 0.00 0.00 64 1016.6
20260510143732 20 223 8.0 11.3 0.00 0.00 0.00 65 1016.7
20260510143229 20 306 4.8 6.4 0.00 0.00 0.00 65 1016.6
20260510142725 20 327 4.8 6.4 0.00 0.00 0.00 65 1016.4
20260510142222 19 6 6.4 11.3 0.00 0.00 0.00 67 1016.6
20260510141719 20 14 8.0 12.9 0.00 0.00 0.00 66 1016.9
20260510141218 20 256 4.8 12.9 0.00 0.00 0.00 66 1016.6
20260510140714 20 235 3.2 6.4 0.00 0.00 0.00 66 1016.4
20260510140213 20 238 3.2 11.3 0.00 0.00 0.00 65 1016.4
20260510135708 20 274 6.4 14.5 0.00 0.00 0.00 63 1016.3
20260510135204 19 250 9.7 12.9 0.00 0.00 0.00 66 1016.6
20260510134701 20 320 12.9 17.7 0.00 0.00 0.00 66 1016.2
20260510134159 19 263 12.9 14.5 0.00 0.00 0.00 67 1016.3
20260510133654 19 265 4.8 6.4 0.00 0.00 0.00 69 1016.4
20260510133150 18 15 8.0 12.9 0.00 0.00 0.00 67 1016.3
20260510132646 18 356 6.4 9.7 0.00 0.00 0.00 68 1016.1
20260510132144 18 221 1.6 14.5 0.00 0.00 0.00 71 1016.4
20260510131641 18 214 6.4 11.3 0.00 0.00 0.00 69 1016.6
20260510131139 18 231 3.2 11.3 0.00 0.00 0.00 70 1016.4
20260510130635 18 209 4.8 6.4 0.00 0.00 0.00 70 1016.6
20260510130133 18 213 3.2 4.8 0.00 0.00 0.00 72 1016.3
20260510125629 18 174 3.2 3.2 0.00 0.00 0.00 71 1016.4
20260510125125 18 180 3.2 4.8 0.00 0.00 0.00 79 1016.3
20260510124622 16 266 0.0 4.8 0.00 0.00 0.00 82 1016.2
20260510124119 16 138 0.0 0.0 0.00 0.00 0.00 89 1016.4
20260510123609 15 144 0.0 0.0 0.00 0.00 0.00 89 1016.4
20260510123106 14 126 1.6 1.6 0.00 0.00 0.00 86 1016.6
20260510122601 14 124 0.0 1.6 0.00 0.00 0.00 88 1016.4
20260510122057 12 110 0.0 0.0 0.00 0.00 0.00 95 1016.4
20260510121554 11 110 0.0 0.0 0.00 0.00 0.00 99 1016.3
20260510121052 11 110 0.0 0.0 0.00 0.00 0.00 99 1016.3
20260510120550 11 110 0.0 0.0 0.00 0.00 0.00 99 1016.1
20260510120049 10 110 0.0 0.0 0.00 0.00 0.00 99 1015.9
20260510115547 10 110 0.0 0.0 0.00 0.00 0.00 99 1016.0
20260510115044 10 89 0.0 0.0 0.00 0.00 0.00 99 1016.1
20260510114539 10 86 0.0 0.0 0.00 0.00 0.00 99 1015.7
20260510114036 10 86 0.0 0.0 0.00 0.00 0.00 99 1016.0
20260510113531 8 86 0.0 0.0 0.00 0.00 0.00 99 1015.8
20260510113029 8 86 0.0 0.0 0.00 0.00 0.00 99 1015.9
20260510112525 7 86 0.0 0.0 0.00 0.00 0.00 99 1015.4
20260510112022 7 86 0.0 0.0 0.00 0.00 0.00 99 1015.3
20260510111519 6 85 0.0 0.0 0.00 0.00 0.00 99 1015.4
20260510111014 6 85 0.0 0.0 0.00 0.00 0.00 99 1015.1
20260510110511 6 85 0.0 0.0 0.00 0.00 0.00 99 1014.9
20260510110007 6 85 0.0 0.0 0.00 0.00 0.00 99 1015.0
20260510105502 6 85 0.0 0.0 0.00 0.00 0.00 99 1014.9
20260510104958 6 85 0.0 0.0 0.00 0.00 0.00 99 1014.9
20260510104454 6 85 0.0 0.0 0.00 0.00 0.00 99 1015.0
20260510103951 6 85 0.0 0.0 0.00 0.00 0.00 99 1014.8
20260510103448 6 86 0.0 1.6 0.00 0.00 0.00 99 1014.7
20260510102943 6 85 0.0 0.0 0.00 0.00 0.00 99 1014.6
20260510102439 6 85 0.0 0.0 0.00 0.00 0.00 99 1014.7
20260510101936 6 85 0.0 0.0 0.00 0.00 0.00 99 1014.8
20260510101434 6 102 0.0 1.6 0.00 0.00 0.00 99 1015.0
20260510100932 6 103 0.0 0.0 0.00 0.00 0.00 99 1014.5
20260510100428 6 102 0.0 0.0 0.00 0.00 0.00 99 1014.4
20260510095924 6 103 0.0 0.0 0.00 0.00 0.00 99 1014.4
20260510095420 6 102 0.0 1.6 0.00 0.00 0.00 99 1014.3
20260510094919 6 102 0.0 0.0 0.00 0.00 0.00 99 1014.1
20260510094414 6 102 0.0 0.0 0.00 0.00 0.00 99 1014.2
20260510093911 6 102 0.0 0.0 0.00 0.00 0.00 99 1014.2
20260510093406 6 102 0.0 0.0 0.00 0.00 0.00 99 1014.1
20260510092904 6 102 0.0 0.0 0.00 0.00 0.00 99 1014.1
20260510092401 6 102 0.0 0.0 0.00 0.00 0.00 99 1014.0
20260510091901 6 102 0.0 0.0 0.00 0.00 0.00 99 1013.9
20260510091358 7 102 0.0 0.0 0.00 0.00 0.00 99 1014.1
20260510090855 6 102 0.0 0.0 0.00 0.00 0.00 99 1013.8
20260510090351 7 102 0.0 0.0 0.00 0.00 0.00 99 1013.7
20260510085847 6 102 0.0 1.6 0.00 0.00 0.00 99 1013.8
20260510085342 7 108 3.2 3.2 0.00 0.00 0.00 99 1013.8
20260510084837 6 75 0.0 0.0 0.00 0.00 0.00 99 1013.6
20260510084335 6 69 1.6 1.6 0.00 0.00 0.00 99 1013.8
20260510083831 7 52 0.0 0.0 0.00 0.00 0.00 99 1013.7
20260510083328 7 49 0.0 0.0 0.00 0.00 0.00 99 1013.6
20260510082824 7 49 0.0 0.0 0.00 0.00 0.00 99 1013.7
20260510082321 7 49 0.0 0.0 0.00 0.00 0.00 99 1013.7
20260510081820 7 44 0.0 0.0 0.00 0.00 0.00 99 1013.6
20260510081316 7 44 0.0 0.0 0.00 0.00 0.00 99 1013.6
20260510080812 7 25 0.0 0.0 0.00 0.00 0.00 99 1013.4
20260510080307 7 20 0.0 0.0 0.00 0.00 0.00 99 1013.5
20260510075805 7 20 0.0 0.0 0.00 0.00 0.00 99 1013.4
20260510075305 7 20 0.0 0.0 0.00 0.00 0.00 99 1013.4
20260510074759 7 36 0.0 0.0 0.00 0.00 0.00 99 1013.4
20260510074255 7 109 0.0 1.6 0.00 0.00 0.00 99 1013.2
20260510073751 7 347 3.2 6.4 0.00 0.00 0.00 99 1013.4
20260510073248 6 124 0.0 0.0 0.00 0.00 0.00 99 1013.3
20260510072743 7 354 0.0 0.0 0.00 0.00 0.00 99 1013.2
20260510072240 7 354 0.0 0.0 0.00 0.00 0.00 99 1013.4
20260510071737 7 354 0.0 0.0 0.00 0.00 0.00 99 1013.4
20260510071233 7 353 0.0 0.0 0.00 0.00 0.00 99 1013.3
20260510070732 7 351 0.0 0.0 0.00 0.00 0.00 99 1013.5
20260510070229 7 351 0.0 0.0 0.00 0.00 0.00 99 1013.3
20260510065723 7 351 0.0 0.0 0.00 0.00 0.00 99 1013.6
20260510065220 7 129 0.0 0.0 0.00 0.00 0.00 99 1013.4
20260510064717 7 129 0.0 0.0 0.00 0.00 0.00 99 1013.3
20260510064214 7 129 0.0 0.0 0.00 0.00 0.00 99 1013.4
20260510063711 7 129 0.0 0.0 0.00 0.00 0.00 99 1013.5
20260510063207 8 129 0.0 0.0 0.00 0.00 0.00 99 1013.6
20260510062704 7 128 0.0 0.0 0.00 0.00 0.00 99 1013.4
20260510062200 7 128 0.0 0.0 0.00 0.00 0.00 99 1013.3
20260510061655 7 162 0.0 0.0 0.00 0.00 0.00 99 1013.6
20260510061152 8 162 0.0 0.0 0.00 0.00 0.00 99 1013.5
20260510060649 8 162 0.0 0.0 0.00 0.00 0.00 99 1013.4
20260510060145 7 162 0.0 0.0 0.00 0.00 0.00 99 1013.5
20260510055641 7 162 0.0 0.0 0.00 0.00 0.00 99 1013.6
20260510055140 7 162 0.0 0.0 0.00 0.00 0.00 99 1013.6
20260510054635 7 162 0.0 0.0 0.00 0.00 0.00 99 1013.7
20260510054131 7 162 0.0 0.0 0.00 0.00 0.00 99 1013.6
20260510053630 7 162 0.0 0.0 0.00 0.00 0.00 99 1013.7
20260510053127 7 162 0.0 0.0 0.00 0.00 0.00 99 1013.6
20260510052623 7 162 0.0 0.0 0.00 0.00 0.00 99 1013.6
20260510052119 8 162 0.0 0.0 0.00 0.00 0.00 99 1013.8
20260510051614 7 162 0.0 0.0 0.00 0.00 0.00 99 1013.8
20260510051112 8 164 0.0 0.0 0.00 0.00 0.00 99 1013.8
20260510050609 8 164 0.0 0.0 0.00 0.00 0.00 99 1013.8
20260510050106 8 164 0.0 0.0 0.00 0.00 0.00 99 1014.0
20260510045603 8 164 0.0 0.0 0.00 0.00 0.00 99 1013.9
20260510045059 8 164 0.0 0.0 0.00 0.00 0.00 99 1014.0
20260510044556 8 164 0.0 0.0 0.00 0.00 0.00 99 1013.9
20260510044053 8 164 0.0 0.0 0.00 0.00 0.00 99 1013.9
20260510043549 8 164 0.0 0.0 0.00 0.00 0.00 99 1013.8
20260510043045 8 164 0.0 0.0 0.00 0.00 0.00 99 1014.2
20260510042544 8 164 0.0 0.0 0.00 0.00 0.00 99 1014.0
20260510042039 8 164 0.0 0.0 0.00 0.00 0.00 99 1013.8
20260510041537 8 164 0.0 0.0 0.00 0.00 0.00 99 1013.8
20260510041034 9 164 0.0 0.0 0.00 0.00 0.00 99 1013.7
20260510040531 9 164 0.0 0.0 0.00 0.00 0.00 99 1013.8
20260510040027 9 164 0.0 0.0 0.00 0.00 0.00 99 1014.0
20260510035523 9 164 0.0 0.0 0.00 0.00 0.00 99 1014.0
20260510035023 9 164 0.0 0.0 0.00 0.00 0.00 99 1013.9
20260510034521 9 164 0.0 0.0 0.00 0.00 0.00 99 1013.8
20260510034018 10 164 0.0 0.0 0.00 0.00 0.00 99 1013.7
20260510033513 9 164 0.0 0.0 0.00 0.00 0.00 99 1013.6
20260510033012 10 164 0.0 0.0 0.00 0.00 0.00 99 1013.7
20260510032508 10 164 0.0 0.0 0.00 0.00 0.00 99 1013.7
20260510032008 10 164 0.0 0.0 0.00 0.00 0.00 99 1013.8
20260510031504 10 166 0.0 0.0 0.00 0.00 0.00 99 1013.7
20260510031000 10 169 0.0 0.0 0.00 0.00 0.00 99 1013.4
20260510030455 10 170 0.0 0.0 0.00 0.00 0.00 99 1013.3
20260510025953 10 169 0.0 0.0 0.00 0.00 0.00 99 1013.4
20260510025450 10 170 0.0 0.0 0.00 0.00 0.00 99 1013.4
20260510024947 10 170 0.0 0.0 0.00 0.00 0.00 99 1013.3
20260510024444 11 170 0.0 0.0 0.00 0.00 0.00 99 1013.2
20260510023939 11 170 0.0 0.0 0.00 0.00 0.00 99 1013.4
20260510023436 11 170 0.0 0.0 0.00 0.00 0.00 98 1013.2
20260510022933 11 170 0.0 0.0 0.00 0.00 0.00 98 1013.2
20260510022432 11 170 0.0 0.0 0.00 0.00 0.00 97 1013.2
20260510021931 11 170 0.0 0.0 0.00 0.00 0.00 97 1013.1
20260510021430 11 170 0.0 0.0 0.00 0.00 0.00 97 1012.9
20260510020926 11 170 0.0 0.0 0.00 0.00 0.00 97 1013.1
20260510020427 11 170 0.0 0.0 0.00 0.00 0.00 96 1012.9
20260510015923 11 170 0.0 0.0 0.00 0.00 0.00 96 1013.0
20260510015419 12 170 0.0 0.0 0.00 0.00 0.00 96 1012.9
20260510014914 12 170 0.0 0.0 0.00 0.00 0.00 95 1012.4
20260510014412 12 170 0.0 0.0 0.00 0.00 0.00 95 1012.4
20260510013908 12 170 0.0 0.0 0.00 0.00 0.00 94 1012.2
20260510013403 12 170 0.0 0.0 0.00 0.00 0.00 92 1012.3
20260510012858 13 170 0.0 0.0 0.00 0.00 0.00 92 1012.3
20260510012353 13 170 0.0 0.0 0.00 0.00 0.00 92 1012.1
20260510011848 13 170 1.6 3.2 0.00 0.00 0.00 91 1012.1
20260510011344 13 169 1.6 3.2 0.00 0.00 0.00 90 1012.1
20260510010840 13 183 0.0 1.6 0.00 0.00 0.00 90 1012.0
20260510010338 14 183 0.0 0.0 0.00 0.00 0.00 88 1012.1
20260510005834 14 183 0.0 0.0 0.00 0.00 0.00 87 1012.0
20260510005330 15 183 0.0 0.0 0.00 0.00 0.00 86 1012.0
20260510004828 15 183 0.0 0.0 0.00 0.00 0.00 85 1011.8
20260510004326 16 184 0.0 0.0 0.00 0.00 0.00 80 1011.8
20260510003823 16 184 0.0 1.6 0.00 0.00 0.00 80 1011.7
20260510003320 17 184 0.0 3.2 0.00 0.00 0.00 74 1011.6
20260510002819 18 177 0.0 0.0 0.00 0.00 0.00 71 1011.4
20260510002316 18 206 1.6 3.2 0.00 0.00 0.00 67 1011.4
20260510001812 18 288 1.6 4.8 0.00 0.00 0.00 65 1011.5
20260510001311 19 232 1.6 3.2 0.00 0.00 0.00 65 1011.4
20260510000806 19 287 4.8 6.4 0.00 0.00 0.00 63 1011.5
20260510000305 19 234 6.4 9.7 0.00 0.00 0.00 62 1011.2
20260509235801 20 254 3.2 11.3 0.00 0.00 0.00 62 1011.2
20260509235258 20 311 6.4 6.4 0.00 0.00 0.00 61 1011.3
20260509234753 20 211 3.2 9.7 0.00 0.00 0.00 60 1011.1
20260509234250 20 264 4.8 11.3 0.00 0.00 0.00 59 1011.4
20260509233749 20 290 1.6 4.8 0.00 0.00 0.00 58 1011.1
20260509233246 20 200 4.8 6.4 0.00 0.00 0.00 60 1011.2
20260509232741 20 195 4.8 12.9 0.00 0.00 0.00 58 1011.2
20260509232239 20 313 0.0 6.4 0.00 0.00 0.00 59 1011.2
20260509231735 20 320 1.6 3.2 0.00 0.00 0.00 58 1011.2
20260509231232 20 271 4.8 11.3 0.00 0.00 0.00 58 1011.2
20260509230730 20 298 1.6 12.9 0.00 0.00 0.00 58 1011.1
20260509230227 21 317 6.4 11.3 0.00 0.00 0.00 56 1011.2
20260509225722 21 259 3.2 11.3 0.00 0.00 0.00 56 1011.1
20260509225218 21 322 4.8 11.3 0.00 0.00 0.00 54 1011.2
20260509224713 22 314 3.2 4.8 0.00 0.00 0.00 53 1010.7
20260509224211 21 235 0.0 1.6 0.00 0.00 0.00 56 1011.0
20260509223708 21 289 9.7 14.5 0.00 0.00 0.00 55 1011.0
20260509223205 22 308 8.0 17.7 0.00 0.00 0.00 53 1010.9
20260509222702 21 289 6.4 11.3 0.00 0.00 0.00 54 1011.0
20260509222158 21 304 8.0 14.5 0.00 0.00 0.00 55 1011.0
20260509221653 21 268 6.4 6.4 0.00 0.00 0.00 54 1011.1
20260509221149 21 267 3.2 9.7 0.00 0.00 0.00 56 1011.3
20260509220645 21 320 3.2 12.9 0.00 0.00 0.00 57 1011.5
20260509220141 21 287 9.7 22.5 0.00 0.00 0.00 55 1011.3
20260509215638 21 263 6.4 14.5 0.00 0.00 0.00 57 1011.3
20260509215135 21 293 6.4 20.9 0.00 0.00 0.00 55 1011.2
20260509214632 21 255 9.7 14.5 0.00 0.00 0.00 57 1011.2